Regional Weather Roundup
Issued by NWS

Home | Current Version | Previous Version | Text Only | Print | Product List | Glossary On
Versions: 1 2 3 4 5 6 7 8 9 10 11 12 13 14 15 16 17 18 19 20 21 22 23 24 25 26 27 28 29 30 31 32 33 34 35 36 37 38 39 40 41 42 43 44 45 46 47 48 49 50
266
ASUS45 KBOU 231907
RWRCO

WEATHER ROUNDUP FOR COLORADO
NATIONAL WEATHER SERVICE DENVER/BOULDER CO
100 PM MDT FRI JUN 23 2017

NOTE: "FAIR" INDICATES FEW OR NO CLOUDS BELOW 12000 FEET WITH NO
SIGNIFICANT WEATHER AND/OR OBSTRUCTIONS TO VISIBILITY.

COZ001>005-013-030-031-232000-
...NORTHWEST COLORADO...

CITY           SKY/WX    TMP DP  RH WIND       PRES   REMARKS
CRAIG          FAIR      76  29  17 W8        30.23S
HAYDEN         FAIR      72  30  21 W12G20    30.25R
MEEKER         FAIR      75  34  22 CALM      30.22F
RABBIT EARS PA FAIR      54  32  43 W9G21     30.46S
STEAMBOAT SPGS FAIR      71  32  23 SW12G17   30.24F
WALDEN         FAIR      68  30  24 N12       30.31R
$$

COZ006>008-011-232000-
...WEST CENTRAL VALLEYS...

CITY           SKY/WX    TMP DP  RH WIND       PRES   REMARKS
GRAND JUNCTION FAIR      87  21   9 VRB7      30.07F
MONTROSE       FAIR      84  27  12 N10       30.14F
EAGLE          SUNNY     81  25  12 SW17G24   30.17F
RIFLE          FAIR      84  26  12 VRB7      30.11F
DELTA          FAIR      90  27  10 S9        30.10F
NUCLA          FAIR      88  19   8 N13       30.19S
$$

COZ017>023-064>068-232000-
...SOUTHWEST COLORADO...

CITY           SKY/WX    TMP DP  RH WIND       PRES   REMARKS
DURANGO        FAIR      90   8   4 W18G32    30.14F
CORTEZ         FAIR      90  16   6 NW14G22   30.14R
PAGOSA SPRINGS FAIR      83  14   7 SW15      30.22F
TELLURIDE      FAIR      74  15  10 W3G17     30.40S
WOLF CREEK PAS FAIR      61  27  27 S18G25    30.61S
$$

COZ009-010-012-014-032>034-037-058>063-232000-
...CENTRAL COLORADO...

CITY           SKY/WX    TMP DP  RH WIND       PRES   REMARKS
ASPEN          FAIR      77  23  13 N9        30.24F
BUENA VISTA    FAIR      70  44  39 S18G25    30.25F
COPPER MTN     FAIR      61   7  11 NW16G25   30.54F
BERTHOUD PASS  FAIR      50  36  57 NW25G38   30.55S
COTTONWOOD PAS FAIR      68  43  40 E10G16    30.38F
GUNNISON       NOT AVBL
KREMMLING      NOT AVBL
LEADVILLE      FAIR      67  10  11 N9G24     30.38R
MONARCH PASS   FAIR      61  27  27 SW21G29   30.66R
SALIDA         FAIR      64  48  56 SE21G35   30.34F
SUNLIGHT       FAIR      63  27  25 W10       30.51F
WILKERSON PASS FAIR      57  41  54 SW6       30.52S
$$

COZ069>075-232000-
...SAN LUIS VALLEY/SANGRE DE CRISTO MOUNTAINS...

CITY           SKY/WX    TMP DP  RH WIND       PRES   REMARKS
ALAMOSA        FAIR      77  43  29 E10       30.21F
DEL NORTE      FAIR      78  41  27 E15       30.24F
LA VETA PASS   SNOW      45  43  93 N12       30.56F VSB<1/4
SAGUACHE       FAIR      81  32  17 S13G20    30.21F
$$

COZ035-036-038>040-232000-
...NORTHERN COLORADO FRONT RANGE...

CITY           SKY/WX    TMP DP  RH WIND       PRES   REMARKS
DENVER INTL AP CLOUDY    54  42  64 SE8       30.30S
DMNS CITY PARK   N/A     54  44  68 E10G18    30.28F
AURORA         CLOUDY    51  44  76 E9        30.31S
FRONT RANGE AP CLOUDY    55  43  62 SE10G18   30.32S
ERIE MUNI ARPT CLOUDY    56  44  65 E6        30.29S
BOULDER MUN AP CLOUDY    52  45  76 NE5       30.29S
CENTENNIAL     CLOUDY    51  45  79 NE9       30.30F
BROOMFIELD     CLOUDY    52  45  76 E6        30.30S
FORT COLLINS   CLOUDY    60  44  55 S9        30.28F
LONGMONT       CLOUDY    58  44  61 CALM      30.31S
$$

COZ041-046-047-076>085-087-088-232000-
...PIKES PEAK/PALMER DIVIDE AND SOUTHERN FOOTHILLS...

CITY           SKY/WX    TMP DP  RH WIND       PRES   REMARKS
COLO. SPRINGS  PTSUNNY   55  44  66 SE12      30.32F
A. F. ACADEMY  CLOUDY    52  43  71 S10       30.30F
SCHRIEVER AFB  NOT AVBL
CHEYENNE MTN   NOT AVBL
ELLICOTT       CLOUDY   N/A N/A N/A SE8       30.32F
FALCON           N/A     53  42  67 SE9       30.34F
FORT CARSON    CLOUDY    57  46  67 S8        30.31F
LIMON          CLOUDY    57  42  57 VRB5      30.30S
MONUMENT HILL  CLOUDY    52  45  76 SE12G17   30.32F
CANON CITY     CLOUDY    55  54  94 MISG      30.31F
WALSENBURG     CLOUDY    52  50  93 MISG      30.33F
TRINIDAD       CLOUDY    56  49  77 NE10      30.32F
$$

COZ042>045-048>051-090-091-232000-
...NORTHEAST COLORADO...

CITY           SKY/WX    TMP DP  RH WIND       PRES   REMARKS
GREELEY ARPT   CLOUDY    63  44  50 S6        30.28F
AKRON          CLOUDY    62  41  46 W7        30.26F
BURLINGTON     CLOUDY    66  46  48 N9        30.25F
WRAY           CLOUDY    70  43  37 N10G18    30.22F
YUMA           CLOUDY    64  34  32 NW10      30.24F
STERLING       CLOUDY    63  43  48 CALM      30.23F
HOLYOKE        NOT AVBL
FORT MORGAN    CLOUDY    63  40  43 CALM      30.28S
$$

COZ086-089-092>099-232000-
...SOUTHEAST COLORADO...

CITY           SKY/WX    TMP DP  RH WIND       PRES   REMARKS
PUEBLO         CLOUDY    56  51  84 E7        30.30F
LA JUNTA       CLOUDY    63  45  51 E8        30.28S
LAMAR          CLOUDY    66  41  40 NE13      30.24S
SPRINGFIELD      N/A     65  48  54 NE16G23   30.23F
$$




USA.gov is the U.S. government's official web portal to all federal, state and local government web resources and services.